GFSNGP_500_temp_084.txt.gz
Temp
-12 -12 -12 -12 -13 -12 -11 -11 -10 -10 -9 -9 -9 -9 -9 -9 -8 -8 -9 -9 -8 -8 -8 -7 -7 -7 -7 -8 -7 -7 -6 -6 -6 -7 -7 -7 -7 -7 -7 -7 -7 -7 -7 -8
-13 -12 -12 -12 -12 -13 -12 -12 -10 -9 -9 -9 -9 -9 -9 -9 -8 -8 -8 -8 -9 -8 -8 -8 -8 -7 -7 -7 -7 -7 -7 -7 -7 -7 -7 -7 -7 -7 -7 -8 -8 -8 -7 -7
-13 -13 -13 -13 -13 -13 -13 -12 -11 -10 -9 -9 -9 -10 -10 -10 -9 -9 -9 -9 -9 -9 -9 -8 -8 -8 -8 -8 -8 -8 -8 -8 -7 -7 -7 -7 -7 -7 -7 -7 -8 -8 -8 -7
-14 -13 -15 -14 -13 -14 -13 -12 -11 -10 -10 -9 -8 -9 -10 -10 -10 -9 -10 -10 -10 -10 -10 -10 -9 -8 -8 -8 -8 -8 -9 -9 -9 -8 -8 -7 -7 -7 -7 -7 -7 -8 -8 -8
-14 -14 -15 -15 -14 -13 -13 -12 -11 -11 -11 -10 -10 -10 -10 -11 -10 -11 -10 -10 -10 -10 -10 -10 -10 -9 -9 -9 -9 -9 -9 -8 -7 -8 -8 -9 -8 -7 -8 -8 -8 -8 -8 -8
-14 -14 -14 -15 -15 -15 -14 -14 -12 -11 -11 -11 -10 -10 -11 -11 -11 -11 -11 -11 -10 -10 -11 -10 -10 -10 -10 -10 -9 -9 -9 -9 -9 -9 -9 -8 -8 -7 -8 -8 -8 -8 -8 -8
-15 -15 -14 -14 -15 -15 -14 -13 -14 -13 -12 -12 -12 -11 -11 -11 -12 -12 -11 -11 -11 -11 -11 -10 -10 -10 -10 -10 -10 -9 -10 -10 -9 -9 -9 -8 -8 -8 -11 -10 -8 -8 -8 -8
-15 -15 -14 -14 -15 -16 -15 -14 -14 -14 -14 -13 -13 -12 -13 -12 -13 -13 -13 -12 -11 -12 -12 -11 -11 -11 -11 -11 -11 -11 -10 -10 -10 -9 -9 -9 -9 -8 -9 -8 -9 -9 -9 -9
-15 -15 -15 -15 -15 -16 -16 -16 -15 -15 -14 -14 -14 -14 -13 -13 -13 -13 -13 -13 -14 -14 -13 -12 -12 -11 -11 -11 -11 -11 -11 -11 -11 -11 -10 -10 -9 -9 -8 -9 -8 -8 -8 -9
-15 -15 -15 -15 -15 -15 -16 -16 -16 -16 -16 -16 -15 -15 -14 -13 -13 -13 -13 -13 -13 -12 -12 -13 -12 -12 -12 -11 -11 -11 -11 -11 -11 -11 -11 -10 -10 -10 -9 -8 -9 -9 -8 -8
-16 -16 -16 -16 -16 -17 -17 -17 -17 -17 -17 -17 -16 -16 -15 -15 -15 -15 -15 -14 -14 -13 -13 -13 -13 -13 -13 -12 -12 -12 -12 -11 -11 -11 -11 -11 -11 -10 -10 -10 -9 -9 -9 -9
-15 -16 -16 -16 -16 -17 -17 -18 -18 -18 -17 -17 -17 -16 -16 -16 -16 -16 -15 -15 -15 -14 -14 -14 -14 -14 -14 -13 -13 -13 -13 -12 -12 -12 -11 -11 -11 -11 -10 -10 -10 -9 -9 -9
-16 -16 -16 -17 -17 -17 -17 -18 -18 -18 -18 -18 -17 -17 -16 -16 -16 -16 -15 -15 -16 -15 -15 -15 -14 -14 -14 -14 -14 -14 -14 -13 -13 -13 -13 -12 -12 -11 -11 -10 -10 -10 -10 -9
-16 -16 -17 -17 -18 -18 -18 -18 -18 -19 -19 -18 -18 -17 -17 -17 -16 -16 -16 -16 -16 -16 -15 -15 -15 -15 -15 -15 -14 -14 -14 -14 -14 -14 -13 -13 -13 -13 -12 -12 -12 -11 -10 -10
-16 -16 -16 -17 -18 -19 -19 -19 -19 -19 -19 -19 -19 -18 -18 -18 -17 -17 -17 -17 -17 -17 -16 -16 -16 -15 -15 -15 -15 -15 -15 -15 -15 -14 -14 -14 -14 -13 -13 -13 -13 -12 -12 -12
-17 -16 -17 -18 -18 -19 -19 -19 -19 -19 -19 -19 -20 -19 -19 -19 -18 -18 -18 -18 -18 -19 -18 -17 -17 -16 -16 -16 -16 -16 -16 -16 -16 -15 -15 -15 -15 -15 -14 -14 -14 -13 -13 -12
-17 -17 -18 -19 -19 -19 -19 -19 -19 -19 -20 -19 -20 -20 -20 -19 -19 -18 -18 -18 -18 -18 -18 -18 -18 -17 -17 -17 -17 -17 -16 -16 -16 -16 -16 -16 -15 -15 -15 -15 -15 -14 -14 -14
-18 -18 -19 -19 -19 -19 -20 -20 -20 -20 -20 -19 -19 -20 -20 -19 -19 -20 -19 -18 -18 -18 -18 -18 -18 -18 -18 -17 -17 -17 -17 -17 -17 -16 -16 -16 -16 -16 -15 -15 -15 -15 -15 -14
-18 -19 -19 -20 -20 -20 -20 -20 -20 -20 -20 -20 -19 -20 -20 -20 -20 -20 -20 -19 -19 -19 -20 -19 -19 -19 -18 -18 -18 -18 -17 -17 -17 -17 -17 -16 -16 -16 -16 -16 -16 -16 -15 -15
-19 -19 -20 -20 -20 -20 -20 -21 -20 -20 -20 -20 -20 -20 -20 -20 -20 -20 -20 -20 -20 -20 -20 -20 -20 -20 -19 -19 -19 -19 -18 -18 -18 -18 -18 -18 -17 -17 -17 -17 -17 -17 -17 -16
-20 -20 -20 -21 -21 -21 -21 -21 -21 -21 -20 -21 -21 -21 -20 -20 -21 -21 -21 -20 -21 -21 -20 -20 -20 -20 -20 -20 -20 -20 -20 -19 -19 -19 -19 -19 -19 -19 -18 -18 -18 -17 -17 -16
-20 -20 -20 -21 -21 -21 -21 -21 -21 -21 -21 -21 -21 -21 -21 -22 -22 -22 -21 -21 -21 -21 -20 -21 -21 -21 -21 -20 -20 -20 -20 -20 -20 -20 -20 -19 -19 -19 -19 -19 -18 -18 -17 -17
-20 -20 -21 -21 -21 -22 -22 -22 -22 -22 -22 -22 -22 -22 -22 -22 -22 -21 -21 -21 -21 -21 -21 -21 -21 -21 -21 -21 -21 -21 -21 -21 -21 -20 -20 -20 -20 -20 -19 -19 -19 -19 -19 -19
-20 -21 -21 -21 -22 -22 -23 -23 -24 -24 -23 -23 -23 -23 -22 -22 -22 -22 -22 -22 -22 -22 -22 -22 -22 -22 -21 -21 -21 -22 -22 -21 -21 -21 -20 -20 -20 -20 -20 -20 -19 -19 -19 -19
-21 -21 -22 -22 -22 -23 -24 -24 -24 -24 -24 -24 -24 -23 -23 -23 -23 -23 -23 -23 -23 -22 -22 -22 -22 -22 -22 -22 -22 -22 -22 -22 -21 -21 -21 -21 -21 -20 -21 -20 -20 -19 -19 -19
-21 -21 -22 -22 -23 -24 -24 -24 -25 -25 -24 -24 -23 -23 -24 -24 -24 -24 -24 -24 -24 -23 -23 -23 -23 -22 -23 -23 -22 -22 -22 -22 -22 -22 -22 -21 -21 -21 -21 -20 -20 -19 -19 -19
-21 -21 -22 -22 -23 -23 -24 -25 -25 -25 -24 -24 -24 -24 -24 -24 -25 -25 -25 -25 -24 -24 -24 -24 -24 -24 -23 -23 -23 -23 -23 -23 -22 -22 -22 -22 -21 -21 -21 -21 -20 -20 -19 -19

GFSNGP_500_temp_087.txt.gz
Temp
-13 -13 -13 -12 -12 -11 -11 -10 -10 -10 -10 -10 -9 -9 -9 -8 -9 -9 -9 -8 -8 -8 -8 -8 -7 -8 -8 -8 -8 -7 -7 -6 -6 -6 -7 -7 -7 -8 -7 -7 -7 -7 -7 -8
-14 -13 -13 -13 -12 -11 -11 -11 -10 -10 -11 -11 -10 -10 -9 -9 -9 -9 -10 -9 -8 -7 -8 -8 -8 -7 -8 -7 -8 -7 -7 -7 -7 -7 -7 -8 -7 -8 -8 -7 -7 -7 -7 -7
-14 -13 -14 -13 -12 -12 -12 -11 -11 -11 -11 -11 -11 -10 -10 -10 -10 -10 -9 -9 -9 -8 -9 -8 -9 -8 -8 -8 -8 -8 -8 -7 -7 -7 -7 -7 -7 -7 -7 -7 -7 -7 -7 -7
-14 -14 -14 -13 -13 -12 -12 -12 -11 -11 -11 -11 -11 -10 -10 -10 -10 -10 -9 -9 -9 -9 -9 -9 -9 -9 -9 -9 -8 -8 -8 -8 -8 -7 -7 -7 -7 -7 -7 -7 -7 -8 -7 -8
-15 -15 -14 -14 -13 -13 -13 -13 -12 -12 -11 -11 -11 -11 -11 -11 -11 -11 -11 -10 -10 -10 -9 -9 -9 -9 -9 -9 -9 -8 -8 -8 -8 -8 -8 -8 -11 -10 -7 -7 -7 -7 -7 -7
-15 -15 -15 -14 -14 -13 -15 -14 -13 -12 -12 -11 -11 -11 -11 -11 -12 -12 -12 -12 -12 -11 -11 -10 -10 -10 -10 -9 -9 -9 -8 -8 -8 -8 -8 -8 -8 -9 -9 -9 -8 -8 -7 -7
-15 -14 -14 -14 -14 -14 -14 -13 -14 -14 -13 -13 -12 -12 -12 -12 -12 -13 -13 -12 -12 -12 -11 -10 -10 -9 -10 -10 -10 -9 -9 -9 -9 -8 -8 -8 -8 -8 -8 -9 -8 -8 -9 -8
-15 -15 -14 -14 -14 -14 -14 -14 -14 -14 -13 -13 -14 -14 -13 -13 -14 -14 -13 -13 -13 -12 -12 -12 -12 -11 -11 -10 -10 -10 -10 -10 -9 -9 -9 -9 -9 -9 -9 -9 -8 -8 -8 -9
-15 -15 -14 -14 -15 -15 -15 -15 -14 -14 -14 -14 -13 -14 -14 -14 -14 -14 -14 -14 -13 -13 -13 -13 -13 -12 -12 -11 -11 -11 -11 -11 -10 -10 -10 -10 -9 -9 -9 -9 -9 -8 -8 -8
-15 -15 -15 -15 -15 -15 -15 -15 -15 -15 -15 -14 -14 -14 -14 -14 -14 -14 -14 -15 -14 -14 -13 -14 -13 -13 -13 -12 -11 -11 -11 -12 -11 -11 -11 -10 -10 -10 -10 -10 -10 -9 -9 -9
-15 -15 -15 -15 -15 -15 -15 -15 -15 -15 -15 -15 -15 -15 -15 -15 -15 -15 -15 -14 -14 -14 -14 -14 -14 -14 -13 -13 -13 -13 -13 -12 -12 -12 -11 -11 -11 -11 -11 -10 -10 -10 -10 -10
-14 -14 -14 -14 -15 -15 -15 -15 -16 -16 -16 -16 -16 -16 -16 -16 -15 -16 -16 -16 -15 -15 -15 -14 -14 -13 -13 -13 -13 -13 -13 -13 -13 -12 -12 -12 -11 -11 -11 -11 -11 -10 -10 -10
-15 -14 -14 -15 -15 -15 -15 -16 -16 -16 -17 -17 -17 -17 -17 -17 -17 -17 -16 -16 -16 -16 -16 -15 -15 -15 -15 -14 -14 -14 -14 -14 -14 -13 -13 -13 -13 -12 -12 -11 -11 -11 -11 -10
-15 -15 -15 -16 -16 -16 -16 -16 -17 -17 -18 -18 -18 -18 -18 -18 -18 -18 -18 -17 -17 -16 -16 -16 -16 -15 -15 -15 -15 -15 -15 -15 -14 -14 -14 -14 -14 -13 -13 -13 -12 -12 -11 -11
-16 -16 -16 -16 -16 -16 -16 -17 -18 -18 -19 -19 -19 -19 -19 -18 -18 -18 -18 -18 -18 -17 -16 -16 -16 -16 -16 -16 -16 -15 -15 -15 -15 -15 -15 -15 -15 -14 -14 -14 -14 -14 -13 -12
-16 -16 -17 -17 -17 -17 -17 -18 -18 -19 -19 -19 -19 -19 -19 -19 -19 -19 -19 -19 -18 -18 -18 -17 -17 -17 -16 -16 -16 -16 -16 -16 -16 -16 -15 -15 -15 -15 -15 -15 -14 -14 -14 -14
-17 -17 -17 -18 -18 -17 -18 -19 -19 -19 -19 -19 -19 -19 -20 -20 -19 -19 -19 -19 -19 -19 -19 -19 -18 -18 -18 -18 -18 -17 -17 -17 -17 -17 -16 -16 -16 -16 -16 -15 -15 -15 -15 -14
-17 -17 -18 -19 -18 -18 -18 -19 -19 -20 -20 -20 -20 -20 -20 -20 -20 -20 -19 -20 -20 -19 -19 -19 -19 -19 -19 -18 -18 -18 -18 -18 -18 -17 -17 -17 -17 -17 -16 -16 -16 -16 -16 -15
-17 -18 -19 -19 -18 -18 -19 -20 -20 -20 -20 -20 -20 -20 -20 -20 -20 -20 -20 -20 -20 -20 -20 -20 -20 -19 -19 -19 -19 -19 -19 -18 -18 -18 -18 -18 -17 -17 -17 -17 -17 -17 -16 -16
-19 -19 -19 -19 -19 -19 -19 -20 -20 -21 -21 -20 -20 -20 -20 -21 -20 -20 -20 -20 -20 -20 -21 -20 -20 -20 -19 -19 -19 -19 -19 -19 -19 -19 -19 -19 -18 -18 -18 -18 -17 -17 -17 -17
-19 -19 -19 -19 -19 -20 -20 -20 -20 -21 -21 -21 -21 -21 -21 -20 -20 -21 -21 -21 -21 -21 -21 -21 -21 -21 -20 -19 -20 -20 -20 -20 -19 -19 -19 -19 -18 -18 -18 -18 -18 -17 -17 -17
-19 -19 -20 -20 -20 -21 -21 -21 -21 -21 -21 -22 -22 -21 -21 -21 -21 -21 -21 -21 -21 -21 -21 -21 -21 -21 -21 -21 -21 -20 -20 -20 -20 -20 -19 -19 -19 -19 -19 -19 -19 -18 -18 -18
-19 -20 -20 -21 -21 -21 -21 -21 -21 -22 -22 -22 -22 -22 -22 -22 -22 -22 -22 -22 -22 -21 -21 -22 -22 -21 -21 -21 -21 -21 -21 -20 -20 -21 -20 -20 -20 -20 -20 -20 -19 -19 -19 -19
-20 -20 -21 -21 -21 -21 -22 -22 -23 -23 -23 -23 -24 -24 -23 -23 -23 -22 -22 -22 -22 -22 -22 -22 -22 -22 -22 -21 -21 -21 -21 -21 -21 -21 -20 -20 -21 -21 -20 -20 -20 -20 -20 -20
-20 -21 -21 -21 -22 -22 -23 -23 -23 -24 -24 -24 -24 -24 -24 -24 -24 -24 -23 -23 -22 -23 -22 -22 -22 -22 -22 -22 -22 -22 -22 -22 -22 -21 -21 -21 -21 -21 -21 -21 -21 -20 -21 -20
-21 -21 -21 -22 -22 -23 -23 -23 -24 -24 -25 -25 -25 -24 -24 -24 -24 -24 -25 -24 -24 -24 -24 -24 -23 -23 -22 -22 -22 -22 -22 -22 -22 -22 -22 -22 -22 -21 -21 -21 -21 -21 -21 -21
-21 -21 -21 -22 -23 -23 -24 -24 -24 -24 -25 -25 -25 -25 -24 -25 -25 -25 -25 -25 -25 -25 -25 -25 -24 -24 -24 -23 -23 -23 -23 -23 -23 -22 -22 -22 -22 -22 -22 -22 -22 -22 -21 -21

GFSNGP_500_temp_093.txt.gz
Temp
-14 -14 -13 -12 -12 -11 -11 -11 -11 -11 -11 -11 -10 -9 -9 -9 -9 -9 -9 -8 -8 -8 -9 -8 -8 -8 -8 -8 -7 -7 -7 -6 -6 -6 -6 -6 -6 -6 -7 -7 -6 -6 -6 -6
-14 -14 -13 -13 -13 -12 -12 -11 -11 -11 -11 -11 -11 -11 -10 -10 -10 -10 -9 -9 -9 -9 -9 -8 -8 -8 -8 -8 -8 -7 -7 -7 -7 -8 -7 -6 -6 -7 -7 -7 -7 -7 -7 -7
-15 -14 -14 -14 -13 -13 -12 -12 -12 -12 -11 -11 -11 -11 -11 -11 -10 -10 -10 -10 -10 -10 -9 -9 -9 -9 -9 -9 -8 -8 -8 -8 -8 -8 -7 -7 -7 -7 -7 -7 -7 -8 -7 -7
-14 -15 -14 -13 -13 -13 -13 -12 -12 -12 -12 -12 -11 -11 -11 -11 -11 -11 -10 -10 -10 -10 -10 -9 -9 -9 -9 -9 -9 -8 -8 -8 -9 -9 -7 -7 -7 -7 -7 -7 -8 -8 -8 -8
-14 -14 -14 -14 -14 -13 -13 -13 -13 -13 -13 -13 -12 -12 -12 -12 -11 -11 -11 -11 -11 -11 -11 -10 -10 -10 -9 -9 -9 -9 -9 -9 -9 -9 -8 -8 -8 -7 -7 -6 -6 -7 -8 -8
-15 -14 -14 -14 -14 -14 -14 -13 -13 -13 -13 -13 -13 -13 -13 -12 -12 -11 -11 -11 -11 -11 -11 -11 -10 -10 -10 -9 -9 -9 -9 -9 -9 -9 -9 -9 -8 -8 -8 -7 -7 -8 -8 -7
-15 -14 -14 -14 -14 -14 -13 -13 -14 -14 -13 -13 -13 -13 -13 -13 -13 -12 -12 -12 -12 -11 -11 -11 -11 -11 -11 -10 -10 -10 -10 -10 -10 -9 -9 -9 -8 -9 -9 -8 -8 -8 -8 -8
-15 -15 -15 -14 -14 -14 -14 -14 -14 -14 -13 -13 -13 -13 -13 -13 -13 -13 -13 -12 -12 -13 -12 -12 -11 -11 -11 -11 -10 -10 -10 -10 -10 -10 -9 -9 -9 -9 -9 -9 -9 -8 -8 -8
-15 -15 -15 -14 -14 -14 -14 -14 -14 -14 -14 -14 -14 -14 -13 -13 -14 -14 -13 -13 -12 -12 -12 -13 -12 -12 -12 -11 -11 -11 -10 -10 -10 -10 -10 -10 -9 -9 -9 -9 -9 -9 -9 -9
-15 -15 -15 -14 -14 -14 -14 -14 -14 -14 -14 -14 -14 -14 -14 -14 -14 -14 -14 -13 -13 -13 -13 -13 -13 -13 -12 -12 -12 -12 -12 -12 -11 -11 -11 -11 -10 -10 -10 -10 -10 -10 -9 -9
-15 -15 -15 -14 -14 -14 -14 -14 -14 -14 -15 -15 -14 -14 -15 -14 -14 -15 -15 -14 -14 -14 -13 -13 -13 -13 -13 -13 -13 -13 -13 -13 -13 -12 -12 -12 -11 -11 -11 -11 -10 -10 -10 -10
-15 -15 -15 -15 -15 -15 -15 -15 -15 -15 -15 -15 -15 -15 -15 -15 -15 -15 -15 -15 -15 -15 -15 -14 -14 -14 -14 -14 -14 -14 -13 -13 -13 -13 -13 -13 -13 -12 -12 -12 -12 -11 -11 -11
-15 -15 -14 -14 -15 -15 -15 -15 -15 -15 -15 -15 -15 -16 -15 -15 -15 -15 -15 -15 -16 -15 -15 -15 -15 -15 -15 -14 -14 -14 -14 -14 -14 -13 -14 -14 -13 -13 -13 -13 -13 -12 -12 -12
-14 -14 -14 -14 -15 -15 -15 -15 -15 -15 -16 -16 -15 -16 -16 -16 -16 -16 -16 -16 -16 -16 -15 -16 -16 -16 -15 -15 -15 -15 -14 -14 -14 -15 -14 -14 -14 -14 -14 -13 -13 -13 -13 -12
-15 -15 -15 -15 -15 -15 -15 -15 -16 -16 -16 -16 -16 -16 -16 -16 -17 -17 -17 -16 -16 -16 -16 -16 -16 -16 -16 -16 -16 -16 -16 -15 -15 -14 -14 -14 -14 -14 -14 -14 -14 -14 -13 -13
-15 -15 -15 -15 -15 -16 -16 -16 -16 -16 -16 -16 -17 -17 -17 -17 -17 -18 -18 -17 -17 -17 -17 -17 -17 -17 -18 -18 -17 -17 -17 -16 -16 -16 -16 -15 -15 -15 -15 -15 -15 -14 -14 -14
-15 -15 -16 -16 -16 -16 -16 -17 -17 -17 -17 -17 -17 -18 -18 -18 -18 -18 -18 -18 -18 -18 -18 -18 -18 -18 -18 -18 -18 -18 -18 -17 -17 -16 -16 -16 -16 -16 -16 -16 -16 -16 -15 -15
-16 -16 -16 -16 -16 -17 -17 -17 -17 -18 -18 -18 -19 -19 -19 -18 -18 -18 -18 -19 -19 -18 -19 -19 -19 -19 -19 -19 -19 -19 -19 -18 -18 -18 -17 -17 -17 -17 -17 -17 -17 -17 -16 -16
-16 -16 -17 -17 -17 -17 -17 -18 -18 -18 -18 -18 -19 -19 -19 -19 -19 -19 -19 -19 -19 -19 -20 -20 -20 -20 -20 -20 -20 -20 -20 -19 -19 -19 -19 -19 -19 -18 -18 -18 -18 -18 -18 -17
-17 -17 -17 -17 -17 -18 -18 -18 -19 -19 -19 -19 -19 -20 -20 -20 -20 -20 -20 -20 -20 -20 -20 -20 -20 -20 -20 -20 -20 -20 -20 -20 -20 -20 -20 -20 -20 -20 -19 -19 -19 -19 -18 -18
-17 -17 -18 -18 -18 -18 -19 -19 -19 -20 -20 -20 -20 -20 -20 -21 -21 -21 -21 -21 -21 -21 -21 -20 -21 -20 -20 -21 -20 -20 -21 -20 -20 -20 -20 -20 -20 -20 -20 -20 -19 -19 -19 -19
-18 -18 -18 -19 -19 -19 -19 -20 -20 -20 -20 -20 -20 -21 -21 -21 -21 -21 -21 -21 -21 -21 -21 -22 -21 -21 -21 -21 -20 -20 -21 -21 -20 -21 -21 -20 -20 -20 -20 -20 -20 -20 -19 -19
-18 -18 -19 -19 -19 -20 -20 -20 -20 -21 -21 -21 -22 -22 -22 -22 -22 -22 -22 -22 -22 -22 -22 -21 -21 -21 -21 -21 -21 -20 -21 -21 -21 -21 -21 -21 -20 -20 -20 -20 -20 -20 -20 -20
-18 -19 -19 -19 -20 -20 -20 -21 -21 -22 -22 -22 -23 -23 -23 -23 -23 -23 -23 -23 -23 -23 -22 -22 -22 -21 -21 -21 -21 -21 -21 -21 -21 -21 -21 -21 -21 -21 -21 -21 -21 -21 -20 -20
-19 -19 -19 -20 -20 -20 -21 -21 -22 -23 -23 -24 -24 -24 -24 -24 -23 -24 -24 -24 -24 -24 -24 -24 -23 -22 -22 -22 -21 -21 -21 -21 -21 -21 -21 -22 -21 -21 -21 -21 -21 -21 -21 -21
-19 -19 -20 -20 -20 -21 -21 -22 -23 -23 -24 -24 -24 -24 -24 -24 -25 -25 -24 -24 -24 -24 -24 -24 -24 -23 -23 -23 -22 -22 -22 -22 -22 -22 -22 -22 -22 -21 -21 -21 -21 -21 -21 -21
-19 -20 -20 -20 -21 -21 -22 -22 -23 -23 -24 -24 -24 -24 -25 -25 -25 -25 -24 -25 -25 -25 -25 -24 -24 -25 -24 -24 -24 -23 -23 -23 -23 -22 -22 -22 -22 -22 -21 -21 -21 -21 -21 -21

GFSNGP_500_temp_096.txt.gz
Temp
-13 -13 -13 -12 -11 -11 -11 -12 -12 -11 -12 -12 -10 -9 -10 -9 -9 -9 -9 -9 -9 -9 -9 -8 -8 -8 -7 -8 -7 -7 -7 -7 -7 -6 -6 -6 -5 -6 -6 -6 -6 -6 -6 -6
-14 -13 -13 -13 -13 -12 -12 -11 -12 -12 -12 -12 -11 -10 -10 -10 -10 -10 -10 -10 -9 -9 -9 -9 -9 -9 -9 -9 -8 -8 -8 -7 -7 -7 -7 -6 -5 -5 -6 -6 -6 -6 -6 -7
-15 -14 -14 -14 -13 -13 -12 -12 -13 -12 -12 -11 -11 -11 -11 -10 -10 -10 -10 -10 -10 -9 -9 -9 -9 -9 -8 -8 -8 -8 -8 -8 -7 -7 -7 -7 -7 -6 -6 -6 -6 -6 -6 -7
-14 -14 -14 -14 -14 -13 -13 -13 -12 -12 -12 -11 -11 -11 -11 -11 -11 -10 -10 -10 -10 -10 -10 -9 -9 -9 -9 -8 -8 -9 -8 -7 -8 -8 -7 -8 -7 -7 -7 -6 -7 -7 -6 -7
-15 -14 -14 -14 -14 -13 -13 -13 -13 -12 -12 -12 -12 -11 -11 -11 -11 -11 -10 -10 -10 -10 -10 -10 -9 -9 -9 -9 -9 -9 -9 -9 -9 -9 -8 -9 -9 -8 -7 -7 -7 -6 -6 -6
-15 -15 -15 -14 -14 -14 -14 -14 -13 -12 -12 -12 -12 -12 -11 -11 -11 -10 -10 -10 -10 -10 -10 -10 -10 -10 -9 -9 -9 -9 -9 -9 -9 -9 -9 -8 -8 -8 -8 -7 -7 -7 -7 -6
-15 -15 -15 -14 -14 -14 -14 -14 -13 -13 -13 -13 -13 -12 -12 -12 -11 -11 -11 -11 -11 -10 -10 -10 -10 -11 -11 -10 -10 -10 -10 -9 -9 -9 -9 -8 -8 -8 -8 -8 -8 -8 -7 -7
-15 -15 -14 -14 -14 -14 -14 -14 -14 -13 -13 -13 -13 -13 -13 -12 -12 -12 -12 -11 -11 -11 -10 -10 -10 -10 -11 -11 -11 -10 -10 -10 -10 -10 -10 -9 -9 -9 -9 -8 -9 -8 -8 -8
-15 -14 -14 -14 -14 -14 -14 -14 -14 -14 -14 -14 -14 -13 -13 -13 -13 -12 -12 -12 -12 -12 -11 -11 -11 -11 -10 -11 -11 -11 -11 -11 -11 -10 -10 -10 -10 -10 -10 -9 -9 -9 -9 -9
-15 -15 -14 -14 -14 -14 -14 -14 -14 -14 -14 -14 -14 -14 -14 -14 -13 -13 -13 -13 -13 -13 -12 -12 -12 -12 -12 -12 -11 -11 -11 -11 -11 -11 -10 -11 -11 -11 -10 -10 -10 -10 -10 -9
-15 -14 -14 -14 -14 -14 -14 -14 -14 -14 -14 -14 -14 -14 -14 -14 -14 -14 -14 -14 -13 -13 -13 -13 -13 -13 -13 -12 -12 -12 -12 -12 -12 -11 -11 -11 -11 -12 -11 -11 -11 -10 -10 -10
-14 -14 -14 -14 -14 -14 -14 -14 -14 -14 -14 -14 -14 -14 -14 -15 -15 -15 -14 -14 -14 -14 -14 -14 -14 -14 -14 -14 -14 -13 -13 -12 -12 -12 -13 -12 -12 -12 -12 -12 -12 -11 -11 -11
-14 -14 -14 -14 -14 -14 -14 -14 -14 -15 -15 -15 -15 -15 -15 -15 -15 -15 -14 -15 -15 -15 -15 -15 -15 -15 -15 -14 -14 -14 -14 -13 -13 -13 -13 -13 -13 -13 -13 -12 -12 -12 -12 -12
-15 -14 -14 -14 -14 -14 -14 -15 -15 -15 -15 -15 -15 -15 -15 -15 -15 -15 -15 -15 -15 -15 -15 -15 -15 -15 -15 -14 -14 -15 -14 -14 -14 -14 -14 -14 -14 -14 -13 -13 -13 -13 -13 -13
-14 -14 -14 -15 -15 -15 -15 -15 -15 -15 -16 -16 -16 -16 -16 -16 -16 -16 -16 -15 -15 -15 -15 -15 -15 -15 -15 -15 -15 -15 -15 -15 -16 -15 -15 -15 -14 -14 -14 -14 -13 -13 -13 -13
-15 -15 -15 -15 -15 -15 -15 -15 -16 -16 -16 -16 -16 -16 -16 -16 -16 -16 -16 -16 -16 -16 -16 -16 -16 -16 -16 -16 -16 -15 -15 -15 -15 -15 -15 -15 -15 -15 -15 -14 -14 -14 -14 -14
-15 -15 -15 -15 -15 -16 -16 -16 -16 -16 -16 -16 -17 -17 -17 -17 -17 -17 -17 -17 -18 -17 -17 -17 -17 -17 -17 -17 -17 -16 -16 -16 -16 -16 -16 -16 -16 -16 -16 -15 -15 -15 -15 -15
-15 -15 -16 -16 -16 -16 -16 -16 -17 -17 -17 -17 -17 -17 -17 -18 -18 -18 -18 -18 -18 -18 -19 -18 -18 -18 -18 -18 -18 -17 -17 -17 -17 -17 -18 -18 -18 -17 -17 -17 -17 -16 -16 -16
-15 -16 -16 -16 -17 -17 -17 -17 -17 -17 -17 -18 -18 -18 -18 -18 -18 -18 -19 -19 -19 -19 -18 -18 -18 -18 -18 -18 -18 -19 -19 -19 -18 -18 -19 -19 -19 -19 -18 -18 -18 -18 -18 -17
-16 -16 -17 -17 -17 -17 -17 -18 -18 -18 -18 -18 -19 -19 -19 -19 -19 -19 -19 -19 -19 -20 -19 -20 -20 -20 -20 -20 -20 -19 -19 -19 -19 -19 -19 -19 -20 -19 -19 -19 -19 -19 -19 -19
-17 -17 -17 -17 -17 -18 -18 -18 -19 -19 -19 -19 -19 -19 -20 -20 -20 -20 -20 -20 -21 -20 -20 -20 -20 -20 -21 -20 -20 -20 -20 -20 -20 -20 -20 -20 -20 -20 -20 -20 -20 -20 -20 -20
-17 -17 -18 -18 -18 -18 -19 -19 -19 -19 -20 -20 -20 -20 -20 -20 -21 -21 -21 -21 -21 -21 -21 -21 -21 -21 -21 -21 -21 -20 -20 -21 -21 -21 -21 -20 -20 -20 -20 -20 -20 -20 -20 -20
-18 -18 -18 -18 -19 -19 -19 -19 -20 -20 -20 -21 -21 -21 -21 -22 -22 -22 -22 -22 -22 -22 -22 -22 -22 -22 -22 -21 -21 -21 -21 -20 -21 -21 -21 -21 -21 -20 -20 -20 -20 -20 -20 -20
-18 -18 -19 -19 -19 -19 -20 -20 -20 -20 -21 -21 -22 -22 -22 -23 -23 -23 -23 -23 -23 -23 -23 -23 -23 -23 -22 -22 -21 -21 -21 -21 -21 -21 -21 -21 -21 -21 -21 -21 -21 -21 -20 -20
-18 -19 -19 -19 -19 -20 -20 -20 -20 -21 -22 -22 -22 -22 -22 -23 -23 -23 -23 -24 -24 -24 -24 -23 -23 -23 -23 -23 -22 -22 -21 -21 -21 -21 -20 -21 -21 -21 -21 -21 -21 -21 -21 -21
-18 -19 -19 -19 -19 -20 -20 -20 -21 -22 -22 -22 -23 -23 -23 -23 -24 -24 -24 -25 -24 -24 -24 -24 -24 -24 -24 -24 -23 -22 -22 -22 -22 -21 -21 -21 -21 -21 -21 -21 -21 -21 -21 -21
-19 -19 -19 -19 -20 -20 -20 -20 -21 -22 -22 -23 -23 -23 -24 -24 -24 -25 -25 -25 -25 -25 -25 -25 -25 -25 -24 -24 -24 -23 -23 -22 -22 -22 -22 -22 -22 -22 -22 -21 -21 -22 -21 -21

GFSNGP_500_temp_102.txt.gz
Temp
-12 -11 -11 -11 -12 -11 -11 -10 -10 -9 -10 -9 -8 -8 -7 -8 -8 -8 -8 -8 -7 -6 -7 -7 -8 -7 -7 -7 -7 -7 -6 -5 -5 -5 -5 -6 -6 -5 -6 -6 -6 -6 -6 -7
-12 -11 -11 -11 -11 -11 -11 -11 -10 -10 -10 -9 -7 -7 -11 -10 -9 -9 -9 -8 -8 -7 -7 -7 -8 -8 -8 -8 -7 -7 -6 -6 -7 -6 -6 -6 -6 -6 -6 -5 -5 -6 -5 -6
-12 -11 -12 -11 -12 -12 -11 -11 -11 -11 -9 -9 -7 -9 -10 -10 -10 -10 -9 -9 -9 -8 -9 -8 -8 -8 -8 -8 -8 -8 -8 -7 -7 -6 -7 -8 -6 -6 -7 -6 -6 -6 -6 -6
-12 -12 -11 -11 -11 -10 -11 -12 -11 -11 -9 -8 -8 -9 -9 -10 -9 -9 -10 -10 -10 -9 -8 -9 -9 -9 -9 -9 -8 -8 -8 -8 -8 -8 -7 -7 -7 -7 -7 -6 -6 -6 -7 -6
-12 -12 -11 -12 -11 -11 -11 -12 -11 -10 -10 -10 -9 -11 -12 -11 -9 -9 -9 -10 -10 -10 -10 -10 -10 -10 -10 -9 -8 -8 -9 -9 -9 -8 -8 -7 -7 -7 -7 -6 -7 -6 -6 -6
-13 -13 -14 -12 -12 -12 -11 -11 -12 -10 -11 -10 -10 -12 -10 -9 -9 -9 -9 -9 -10 -10 -10 -10 -10 -10 -10 -9 -9 -9 -9 -9 -9 -9 -8 -9 -8 -8 -7 -8 -7 -8 -7 -6
-14 -12 -12 -13 -12 -13 -13 -12 -12 -13 -12 -11 -11 -11 -11 -9 -10 -10 -10 -10 -9 -9 -9 -10 -10 -10 -10 -9 -9 -10 -10 -10 -10 -9 -9 -9 -9 -9 -8 -8 -8 -8 -8 -8
-15 -13 -14 -14 -13 -13 -13 -13 -13 -13 -12 -12 -12 -12 -12 -11 -10 -10 -11 -10 -10 -10 -10 -10 -10 -10 -9 -9 -9 -9 -10 -10 -10 -10 -10 -9 -9 -9 -9 -9 -8 -8 -8 -8
-13 -13 -14 -14 -14 -14 -14 -14 -13 -13 -13 -13 -13 -13 -12 -12 -11 -11 -11 -11 -11 -11 -11 -11 -11 -11 -10 -10 -10 -10 -10 -9 -10 -10 -10 -11 -10 -10 -10 -10 -9 -9 -9 -8
-14 -13 -14 -14 -14 -14 -14 -13 -14 -14 -13 -13 -13 -13 -13 -13 -12 -12 -11 -11 -12 -12 -11 -11 -11 -11 -11 -11 -11 -11 -11 -11 -10 -10 -10 -10 -11 -11 -10 -10 -10 -10 -10 -10
-14 -14 -14 -14 -14 -14 -14 -14 -14 -13 -13 -13 -13 -13 -13 -13 -13 -13 -12 -12 -12 -12 -12 -12 -12 -12 -11 -11 -12 -12 -12 -12 -11 -11 -11 -11 -11 -11 -11 -10 -10 -10 -11 -10
-14 -13 -14 -13 -14 -14 -14 -14 -14 -14 -14 -13 -14 -13 -13 -13 -13 -13 -13 -13 -13 -13 -13 -13 -13 -13 -13 -13 -12 -12 -12 -12 -12 -12 -12 -12 -12 -12 -11 -11 -11 -10 -11 -11
-14 -14 -14 -14 -14 -14 -14 -14 -14 -14 -14 -14 -14 -14 -13 -13 -13 -13 -13 -13 -13 -13 -13 -13 -13 -13 -13 -13 -13 -13 -13 -13 -13 -12 -12 -12 -12 -12 -12 -12 -12 -11 -11 -11
-14 -14 -14 -14 -14 -14 -14 -14 -14 -14 -14 -14 -14 -14 -14 -14 -14 -14 -14 -14 -14 -14 -14 -14 -14 -14 -13 -14 -14 -14 -14 -14 -14 -14 -14 -13 -13 -13 -13 -13 -13 -12 -12 -12
-15 -15 -14 -14 -14 -14 -14 -14 -14 -14 -14 -14 -14 -14 -14 -14 -14 -14 -14 -14 -14 -14 -14 -14 -14 -14 -14 -14 -14 -14 -14 -14 -14 -14 -14 -14 -14 -14 -14 -13 -13 -13 -14 -13
-15 -15 -15 -14 -14 -14 -14 -14 -14 -14 -14 -14 -14 -14 -15 -15 -15 -15 -15 -15 -15 -15 -15 -15 -15 -15 -15 -15 -15 -15 -15 -15 -15 -14 -14 -14 -14 -14 -14 -14 -14 -14 -14 -14
-14 -15 -15 -14 -14 -14 -14 -14 -15 -15 -15 -15 -15 -15 -15 -15 -15 -15 -15 -16 -16 -15 -16 -16 -16 -16 -16 -16 -16 -16 -15 -16 -15 -15 -15 -15 -15 -15 -15 -15 -15 -15 -15 -15
-15 -15 -15 -14 -14 -15 -15 -15 -15 -15 -15 -15 -16 -16 -16 -16 -16 -16 -16 -16 -16 -16 -16 -16 -16 -16 -16 -16 -16 -16 -16 -16 -16 -16 -16 -16 -16 -16 -16 -16 -16 -16 -15 -15
-15 -15 -15 -15 -15 -15 -15 -15 -16 -16 -16 -16 -16 -17 -17 -17 -17 -16 -17 -17 -17 -17 -17 -17 -17 -17 -17 -17 -17 -17 -18 -17 -17 -18 -18 -17 -17 -17 -17 -17 -17 -17 -17 -16
-14 -14 -14 -15 -15 -16 -16 -16 -16 -16 -17 -17 -17 -17 -17 -17 -17 -18 -18 -18 -18 -18 -18 -18 -18 -18 -18 -18 -18 -18 -18 -18 -18 -17 -19 -18 -18 -18 -18 -18 -18 -18 -18 -17
-14 -14 -15 -15 -16 -16 -17 -17 -17 -17 -17 -17 -17 -17 -18 -18 -18 -18 -18 -18 -19 -19 -19 -19 -19 -19 -19 -19 -19 -19 -19 -20 -19 -19 -18 -19 -19 -19 -19 -19 -18 -19 -18 -18
-15 -15 -15 -16 -16 -17 -17 -18 -18 -18 -18 -18 -18 -18 -18 -18 -18 -19 -19 -20 -20 -20 -20 -20 -20 -20 -20 -20 -20 -20 -20 -20 -20 -20 -20 -19 -20 -20 -20 -20 -19 -19 -20 -19
-15 -15 -15 -16 -17 -17 -18 -18 -18 -18 -18 -18 -18 -18 -18 -18 -19 -20 -20 -20 -20 -20 -21 -21 -21 -21 -21 -21 -21 -21 -21 -21 -21 -21 -21 -21 -21 -21 -21 -21 -21 -20 -20 -21
-15 -15 -16 -16 -17 -17 -18 -18 -18 -18 -18 -18 -18 -18 -18 -19 -19 -20 -21 -21 -21 -21 -22 -22 -22 -22 -22 -22 -22 -23 -23 -22 -22 -22 -22 -22 -21 -22 -21 -21 -21 -21 -21 -21
-15 -15 -15 -16 -17 -17 -18 -18 -18 -18 -18 -18 -18 -18 -18 -19 -20 -21 -21 -21 -22 -22 -23 -23 -23 -23 -23 -23 -23 -23 -23 -23 -23 -23 -22 -22 -22 -22 -22 -22 -21 -21 -21 -21
-15 -15 -16 -16 -17 -17 -18 -18 -18 -18 -18 -18 -18 -18 -19 -19 -20 -21 -21 -22 -23 -24 -24 -24 -24 -24 -24 -24 -24 -24 -24 -24 -24 -23 -23 -23 -23 -22 -22 -22 -22 -21 -21 -21
-15 -15 -16 -16 -17 -17 -18 -18 -18 -18 -18 -19 -19 -19 -19 -19 -20 -21 -22 -22 -24 -24 -24 -24 -24 -24 -24 -24 -24 -24 -24 -24 -24 -24 -23 -23 -23 -23 -22 -22 -22 -22 -22 -21

GFSNGP_500_temp_105.txt.gz
Temp
-12 -11 -11 -11 -12 -12 -11 -9 -10 -10 -10 -9 -8 -8 -8 -8 -7 -7 -7 -7 -7 -7 -7 -5 -5 -7 -7 -7 -7 -6 -6 -6 -6 -5 -5 -5 -5 -5 -5 -6 -6 -6 -5 -6
-12 -11 -11 -11 -12 -12 -12 -10 -11 -10 -10 -9 -9 -8 -8 -8 -7 -7 -7 -7 -7 -7 -7 -4 -7 -7 -8 -8 -8 -8 -7 -7 -6 -5 -4 -5 -5 -5 -6 -5 -6 -6 -5 -6
-13 -12 -11 -12 -11 -12 -12 -11 -12 -12 -11 -10 -9 -7 -8 -9 -9 -9 -9 -7 -8 -8 -8 -8 -8 -8 -8 -8 -9 -9 -8 -7 -7 -6 -6 -6 -6 -6 -6 -6 -6 -6 -6 -6
-12 -12 -12 -11 -11 -11 -11 -11 -11 -10 -9 -9 -9 -8 -7 -9 -9 -9 -8 -8 -8 -9 -9 -8 -8 -9 -9 -8 -9 -9 -8 -8 -7 -7 -7 -7 -6 -6 -6 -7 -7 -7 -7 -7
-13 -13 -12 -12 -11 -11 -11 -11 -10 -10 -9 -9 -9 -8 -7 -9 -9 -10 -9 -9 -9 -9 -9 -9 -8 -9 -9 -9 -9 -9 -9 -8 -8 -8 -8 -8 -7 -7 -7 -7 -7 -7 -7 -6
-14 -14 -13 -12 -11 -12 -11 -11 -9 -10 -10 -9 -9 -8 -8 -8 -8 -9 -10 -10 -11 -10 -10 -10 -9 -9 -9 -9 -9 -9 -9 -9 -9 -9 -9 -9 -8 -8 -7 -7 -7 -7 -7 -7
-14 -15 -13 -13 -12 -11 -12 -11 -10 -10 -10 -10 -8 -9 -11 -10 -10 -10 -10 -10 -10 -10 -10 -10 -10 -10 -10 -10 -9 -10 -10 -9 -9 -9 -9 -9 -9 -9 -8 -8 -8 -7 -7 -7
-14 -14 -14 -13 -13 -12 -12 -12 -11 -10 -10 -11 -10 -11 -12 -11 -12 -11 -11 -9 -10 -10 -10 -10 -10 -10 -10 -10 -10 -10 -10 -10 -10 -9 -10 -10 -9 -9 -9 -9 -8 -8 -8 -8
-13 -13 -14 -14 -14 -14 -13 -12 -12 -12 -12 -11 -13 -13 -13 -12 -11 -10 -11 -11 -10 -11 -10 -10 -10 -10 -10 -10 -10 -10 -10 -10 -10 -10 -10 -10 -10 -10 -10 -9 -9 -9 -9 -8
-14 -13 -13 -14 -14 -14 -14 -13 -13 -12 -12 -13 -13 -13 -12 -12 -12 -12 -12 -12 -11 -11 -11 -10 -10 -10 -10 -10 -10 -10 -10 -10 -10 -10 -10 -10 -10 -10 -10 -10 -10 -9 -9 -9
-14 -13 -14 -14 -14 -13 -13 -13 -13 -13 -12 -12 -12 -13 -13 -12 -12 -13 -12 -12 -12 -12 -12 -12 -11 -11 -12 -12 -12 -11 -11 -11 -11 -11 -11 -11 -10 -10 -10 -10 -10 -10 -10 -10
-14 -14 -14 -14 -14 -14 -13 -13 -13 -13 -13 -13 -12 -12 -12 -12 -12 -12 -12 -12 -12 -12 -12 -12 -12 -12 -12 -12 -12 -12 -12 -12 -12 -11 -11 -11 -11 -11 -11 -11 -10 -11 -11 -11
-13 -14 -14 -14 -14 -14 -14 -14 -13 -13 -13 -13 -13 -12 -12 -12 -13 -13 -13 -13 -13 -13 -13 -13 -13 -13 -13 -13 -13 -13 -13 -13 -13 -12 -12 -12 -12 -12 -12 -12 -12 -11 -11 -11
-14 -14 -14 -14 -13 -13 -14 -13 -14 -13 -14 -14 -14 -13 -13 -13 -13 -13 -13 -13 -13 -13 -13 -14 -13 -13 -13 -13 -13 -13 -13 -14 -14 -14 -13 -13 -13 -13 -13 -13 -12 -12 -13 -13
-14 -14 -14 -14 -14 -14 -14 -13 -14 -13 -13 -13 -14 -14 -14 -14 -14 -13 -14 -14 -14 -14 -14 -14 -14 -14 -14 -14 -14 -14 -14 -14 -14 -14 -14 -14 -14 -14 -14 -14 -14 -14 -14 -14
-14 -14 -14 -14 -14 -14 -14 -14 -14 -14 -13 -14 -14 -14 -14 -14 -14 -14 -14 -14 -14 -14 -14 -14 -14 -15 -15 -15 -15 -15 -15 -15 -15 -15 -15 -15 -15 -14 -14 -14 -14 -14 -14 -14
-14 -14 -14 -14 -14 -14 -14 -14 -14 -14 -14 -14 -15 -15 -15 -15 -15 -15 -15 -15 -15 -15 -15 -15 -15 -15 -15 -15 -16 -16 -16 -16 -16 -16 -16 -16 -16 -15 -15 -15 -15 -14 -14 -15
-14 -14 -14 -14 -14 -14 -14 -14 -14 -14 -15 -15 -15 -15 -15 -15 -15 -15 -16 -16 -16 -16 -16 -16 -16 -16 -16 -16 -16 -16 -16 -16 -17 -16 -16 -16 -16 -16 -16 -16 -16 -15 -15 -15
-14 -14 -14 -15 -14 -14 -14 -14 -15 -15 -16 -16 -16 -16 -16 -16 -16 -16 -16 -16 -17 -17 -17 -16 -16 -16 -16 -17 -17 -17 -17 -17 -17 -17 -17 -18 -17 -17 -17 -17 -17 -16 -17 -17
-14 -14 -14 -14 -14 -14 -15 -15 -16 -16 -17 -17 -17 -17 -17 -17 -17 -17 -17 -17 -17 -16 -17 -17 -17 -17 -17 -17 -18 -18 -18 -18 -18 -18 -18 -18 -19 -19 -19 -18 -18 -18 -18 -18
-14 -14 -14 -14 -14 -15 -15 -16 -16 -17 -17 -17 -17 -17 -17 -17 -17 -17 -16 -16 -17 -17 -17 -17 -18 -18 -18 -19 -19 -19 -19 -19 -19 -20 -19 -18 -19 -19 -20 -20 -19 -19 -19 -19
-14 -14 -14 -14 -14 -15 -15 -16 -17 -17 -17 -17 -17 -17 -17 -17 -17 -17 -17 -17 -17 -17 -18 -19 -20 -19 -19 -20 -20 -20 -20 -20 -20 -20 -20 -20 -20 -20 -20 -21 -21 -20 -20 -19
-14 -14 -14 -14 -14 -15 -15 -16 -17 -17 -17 -17 -17 -17 -17 -17 -17 -17 -17 -17 -17 -18 -19 -20 -20 -20 -21 -21 -21 -21 -21 -21 -21 -21 -21 -21 -21 -21 -21 -21 -21 -21 -21 -21
-14 -14 -14 -14 -14 -15 -16 -16 -17 -17 -17 -17 -17 -17 -18 -17 -18 -18 -17 -18 -18 -19 -20 -21 -21 -22 -22 -22 -22 -22 -22 -22 -22 -22 -22 -22 -22 -22 -22 -22 -22 -22 -22 -21
-14 -14 -14 -14 -14 -15 -16 -16 -17 -17 -18 -18 -18 -18 -18 -18 -18 -18 -18 -18 -19 -20 -20 -22 -23 -23 -23 -23 -23 -23 -23 -23 -23 -23 -23 -23 -23 -23 -22 -22 -22 -22 -22 -22
-14 -14 -14 -14 -15 -15 -16 -16 -17 -17 -18 -18 -18 -18 -18 -18 -18 -18 -19 -19 -20 -20 -21 -23 -24 -24 -24 -24 -24 -24 -24 -24 -24 -24 -23 -23 -23 -23 -23 -23 -23 -22 -22 -22
-14 -14 -15 -15 -15 -15 -16 -17 -17 -17 -18 -18 -18 -18 -19 -19 -18 -18 -19 -19 -20 -21 -22 -23 -24 -24 -24 -24 -25 -25 -25 -24 -24 -24 -24 -23 -23 -23 -23 -23 -23 -23 -23 -22

GFSNGP_500_temp_111.txt.gz
Temp
-13 -12 -12 -12 -12 -12 -11 -11 -9 -8 -8 -9 -9 -9 -8 -7 -8 -9 -7 -7 -7 -7 -7 -6 -6 -6 -6 -6 -6 -6 -6 -6 -6 -6 -6 -6 -6 -6 -6 -6 -6 -6 -7 -7
-13 -12 -12 -12 -11 -11 -10 -10 -9 -9 -9 -10 -9 -9 -9 -9 -7 -7 -7 -6 -7 -7 -7 -7 -7 -7 -6 -5 -6 -6 -7 -6 -6 -6 -6 -6 -7 -6 -7 -7 -7 -6 -6 -6
-13 -12 -12 -11 -11 -11 -10 -10 -10 -9 -9 -10 -10 -9 -9 -9 -8 -7 -7 -7 -7 -5 -6 -8 -7 -7 -7 -7 -7 -6 -7 -7 -6 -6 -7 -8 -8 -7 -7 -7 -6 -7 -7 -6
-13 -13 -12 -12 -11 -11 -11 -10 -10 -10 -9 -10 -10 -11 -9 -9 -9 -8 -8 -8 -7 -7 -8 -7 -7 -7 -7 -7 -7 -7 -7 -7 -7 -7 -8 -8 -8 -8 -7 -7 -7 -7 -7 -6
-13 -14 -12 -12 -12 -11 -12 -10 -10 -11 -10 -10 -10 -10 -10 -9 -8 -8 -9 -8 -7 -7 -7 -7 -7 -7 -7 -7 -7 -7 -7 -7 -8 -8 -8 -8 -9 -8 -7 -7 -7 -8 -8 -7
-14 -13 -12 -12 -13 -13 -12 -12 -11 -11 -11 -11 -10 -11 -11 -10 -9 -9 -9 -8 -8 -8 -8 -8 -8 -8 -7 -7 -7 -7 -7 -7 -8 -8 -8 -9 -8 -8 -8 -9 -8 -8 -8 -8
-14 -13 -13 -12 -12 -12 -12 -12 -12 -12 -11 -11 -11 -11 -11 -10 -10 -10 -10 -9 -9 -9 -9 -9 -9 -9 -9 -9 -9 -8 -8 -8 -8 -9 -9 -9 -9 -9 -9 -9 -9 -8 -8 -8
-14 -14 -13 -13 -13 -12 -12 -12 -12 -12 -12 -12 -12 -12 -11 -11 -10 -10 -10 -10 -10 -10 -10 -10 -10 -10 -10 -10 -10 -9 -9 -9 -9 -10 -10 -10 -10 -10 -10 -10 -9 -9 -9 -9
-15 -14 -14 -14 -13 -13 -13 -13 -13 -13 -12 -12 -12 -12 -11 -11 -11 -11 -11 -11 -11 -10 -11 -11 -11 -11 -10 -10 -10 -10 -10 -11 -11 -11 -11 -10 -10 -10 -10 -10 -10 -9 -9 -9
-14 -14 -14 -14 -14 -14 -14 -13 -13 -12 -13 -12 -12 -12 -12 -11 -11 -12 -11 -11 -11 -11 -11 -11 -11 -10 -10 -10 -10 -10 -10 -11 -11 -11 -10 -10 -10 -10 -10 -10 -10 -9 -9 -9
-14 -14 -15 -15 -15 -14 -14 -13 -12 -12 -13 -12 -12 -12 -12 -12 -12 -12 -12 -12 -12 -11 -11 -11 -10 -10 -11 -11 -11 -12 -12 -12 -11 -11 -11 -11 -11 -10 -10 -10 -10 -10 -10 -11
-14 -14 -14 -14 -14 -13 -13 -14 -13 -13 -13 -13 -13 -12 -13 -13 -12 -12 -12 -12 -12 -12 -12 -11 -11 -11 -11 -11 -11 -11 -11 -12 -12 -12 -12 -12 -12 -12 -12 -11 -11 -11 -11 -11
-14 -14 -14 -14 -14 -14 -14 -14 -13 -13 -13 -13 -13 -13 -13 -13 -14 -13 -13 -12 -12 -12 -12 -12 -11 -11 -11 -11 -12 -12 -12 -12 -12 -12 -12 -12 -12 -12 -12 -13 -13 -13 -12 -12
-14 -14 -14 -14 -14 -14 -14 -14 -13 -13 -13 -13 -14 -13 -14 -13 -13 -13 -13 -14 -13 -13 -13 -13 -13 -13 -13 -13 -13 -13 -13 -13 -13 -12 -13 -13 -13 -13 -13 -13 -13 -13 -13 -13
-13 -14 -14 -14 -14 -14 -14 -14 -14 -14 -14 -14 -13 -13 -13 -13 -14 -14 -14 -14 -14 -14 -14 -14 -13 -13 -13 -13 -14 -14 -14 -14 -14 -14 -14 -14 -14 -14 -14 -14 -14 -14 -14 -14
-13 -14 -14 -14 -14 -14 -14 -14 -14 -14 -14 -14 -14 -13 -14 -14 -14 -14 -14 -14 -14 -14 -14 -14 -14 -14 -14 -14 -14 -14 -14 -14 -14 -14 -14 -14 -14 -14 -15 -15 -15 -15 -15 -14
-14 -14 -14 -14 -14 -14 -14 -14 -14 -14 -14 -14 -14 -14 -14 -14 -14 -14 -15 -15 -15 -15 -15 -14 -15 -15 -15 -14 -14 -14 -14 -14 -14 -14 -14 -14 -15 -15 -15 -15 -15 -15 -15 -15
-14 -14 -14 -14 -14 -14 -14 -14 -14 -14 -14 -14 -14 -14 -14 -14 -15 -15 -15 -15 -15 -15 -15 -15 -15 -15 -15 -15 -15 -15 -16 -16 -16 -16 -15 -15 -16 -16 -16 -16 -16 -16 -16 -16
-14 -15 -15 -14 -14 -14 -14 -14 -14 -14 -14 -13 -13 -14 -14 -15 -15 -15 -15 -16 -16 -16 -16 -16 -16 -16 -16 -16 -16 -16 -16 -16 -16 -16 -16 -16 -16 -16 -16 -16 -16 -16 -17 -17
-14 -15 -15 -14 -14 -14 -14 -14 -14 -14 -14 -14 -14 -14 -14 -15 -15 -16 -16 -16 -16 -16 -16 -16 -16 -16 -16 -16 -16 -16 -16 -16 -16 -16 -17 -17 -17 -17 -17 -17 -18 -18 -18 -18
-15 -15 -14 -14 -14 -14 -14 -14 -13 -13 -14 -14 -14 -14 -14 -15 -15 -16 -16 -16 -16 -17 -17 -17 -17 -17 -17 -17 -17 -17 -17 -17 -17 -17 -17 -17 -18 -18 -19 -19 -20 -20 -20 -20
-15 -14 -14 -14 -14 -14 -14 -14 -14 -14 -14 -14 -14 -14 -15 -15 -15 -16 -16 -16 -17 -17 -17 -17 -17 -17 -17 -17 -17 -17 -17 -17 -18 -19 -19 -19 -20 -20 -21 -21 -21 -21 -21 -21
-15 -15 -15 -14 -14 -14 -14 -14 -14 -14 -14 -15 -15 -15 -15 -15 -16 -16 -16 -16 -17 -17 -17 -18 -18 -18 -18 -18 -17 -17 -18 -19 -20 -21 -21 -21 -22 -22 -22 -22 -22 -21 -21 -22
-15 -15 -14 -14 -14 -14 -14 -14 -14 -14 -15 -15 -15 -15 -15 -16 -16 -16 -16 -17 -17 -18 -18 -18 -18 -18 -18 -18 -18 -19 -19 -21 -22 -22 -23 -23 -24 -24 -23 -23 -23 -23 -23 -22
-15 -14 -14 -14 -14 -14 -14 -14 -14 -14 -14 -15 -15 -15 -16 -16 -16 -16 -17 -17 -18 -18 -19 -19 -19 -19 -19 -19 -19 -19 -20 -22 -23 -24 -24 -24 -24 -24 -24 -24 -24 -23 -23 -23
-14 -14 -14 -14 -14 -14 -14 -14 -14 -14 -14 -15 -15 -15 -16 -17 -17 -17 -18 -18 -19 -19 -19 -19 -19 -19 -19 -19 -19 -20 -21 -23 -23 -23 -23 -24 -24 -24 -24 -24 -24 -24 -24 -23
-15 -14 -14 -14 -14 -14 -14 -14 -14 -14 -15 -15 -15 -16 -16 -17 -18 -18 -19 -19 -19 -19 -20 -20 -20 -20 -20 -20 -20 -21 -21 -23 -23 -23 -23 -23 -24 -24 -24 -24 -24 -24 -24 -24

GFSNGP_500_temp_114.txt.gz
Temp
-14 -14 -13 -12 -12 -12 -11 -11 -12 -12 -11 -10 -10 -9 -8 -8 -8 -8 -8 -7 -7 -7 -7 -6 -6 -7 -6 -7 -7 -7 -6 -6 -7 -6 -7 -7 -7 -6 -6 -6 -6 -7 -6 -6
-14 -14 -13 -13 -12 -12 -11 -10 -11 -12 -12 -11 -10 -10 -9 -8 -8 -8 -7 -7 -7 -7 -7 -7 -6 -7 -7 -7 -7 -6 -6 -6 -6 -6 -6 -7 -6 -6 -7 -6 -6 -6 -7 -7
-14 -14 -14 -12 -13 -12 -11 -11 -11 -11 -12 -12 -11 -10 -9 -9 -8 -8 -8 -7 -8 -7 -7 -7 -7 -7 -7 -7 -7 -6 -6 -6 -6 -7 -6 -6 -6 -6 -6 -6 -6 -7 -7 -6
-14 -14 -14 -13 -13 -12 -12 -11 -11 -11 -12 -12 -12 -11 -10 -10 -9 -9 -9 -8 -8 -8 -7 -8 -8 -7 -7 -7 -6 -6 -7 -6 -6 -7 -7 -6 -6 -6 -6 -7 -7 -7 -6 -7
-14 -14 -13 -13 -13 -12 -12 -11 -11 -11 -11 -12 -12 -11 -11 -11 -10 -10 -9 -9 -9 -8 -9 -8 -8 -7 -7 -7 -7 -6 -7 -7 -7 -6 -6 -7 -7 -7 -7 -8 -7 -7 -7 -7
-15 -14 -13 -13 -12 -13 -12 -12 -12 -12 -12 -12 -11 -11 -11 -11 -11 -10 -10 -10 -9 -9 -9 -8 -8 -8 -7 -7 -7 -7 -7 -7 -7 -7 -7 -7 -7 -7 -7 -8 -8 -8 -8 -7
-14 -14 -14 -14 -13 -13 -13 -13 -12 -12 -13 -12 -12 -12 -12 -11 -11 -11 -10 -10 -10 -9 -9 -8 -8 -8 -8 -8 -7 -7 -7 -7 -7 -7 -7 -7 -7 -7 -8 -9 -9 -9 -9 -8
-14 -14 -14 -14 -14 -14 -14 -13 -13 -12 -12 -12 -12 -12 -12 -12 -12 -12 -11 -10 -10 -9 -9 -9 -9 -8 -9 -8 -8 -8 -8 -8 -7 -7 -6 -8 -8 -8 -9 -8 -9 -9 -9 -9
-14 -14 -14 -14 -14 -13 -14 -14 -13 -13 -12 -12 -12 -12 -12 -12 -11 -11 -11 -11 -11 -10 -11 -9 -9 -10 -9 -10 -9 -9 -9 -8 -8 -8 -8 -9 -9 -10 -10 -10 -10 -9 -10 -10
-14 -14 -14 -14 -14 -14 -14 -13 -13 -13 -13 -13 -12 -12 -12 -12 -12 -11 -11 -12 -11 -11 -11 -11 -11 -10 -11 -10 -10 -10 -10 -9 -9 -10 -10 -11 -10 -10 -10 -10 -10 -10 -10 -9
-14 -14 -15 -15 -15 -15 -14 -13 -13 -13 -13 -13 -13 -12 -13 -12 -12 -12 -12 -11 -11 -10 -10 -11 -10 -11 -11 -11 -10 -10 -10 -10 -10 -10 -10 -11 -10 -10 -10 -10 -10 -10 -10 -10
-14 -14 -14 -15 -15 -15 -15 -14 -15 -14 -14 -13 -13 -13 -13 -13 -13 -13 -12 -11 -11 -11 -11 -11 -11 -12 -12 -11 -10 -10 -10 -10 -11 -11 -11 -11 -11 -11 -11 -11 -11 -11 -11 -11
-14 -14 -14 -14 -14 -14 -14 -14 -14 -14 -14 -14 -14 -14 -14 -13 -13 -12 -12 -12 -12 -12 -12 -12 -12 -12 -12 -12 -11 -11 -11 -11 -11 -12 -12 -12 -12 -12 -12 -12 -12 -12 -12 -12
-13 -13 -14 -14 -14 -14 -14 -14 -14 -14 -14 -14 -14 -14 -13 -13 -13 -13 -13 -13 -13 -12 -12 -12 -12 -12 -12 -12 -12 -12 -12 -12 -12 -13 -13 -13 -13 -13 -13 -13 -13 -13 -13 -13
-13 -14 -14 -14 -14 -14 -14 -14 -14 -14 -14 -14 -14 -14 -13 -13 -13 -14 -14 -14 -14 -14 -13 -13 -13 -13 -13 -13 -13 -13 -13 -13 -13 -13 -14 -14 -14 -14 -14 -14 -14 -14 -14 -14
-14 -14 -14 -14 -14 -14 -14 -14 -14 -14 -13 -13 -13 -13 -13 -13 -13 -13 -13 -13 -14 -14 -14 -13 -13 -13 -13 -13 -13 -13 -13 -13 -14 -14 -14 -14 -14 -14 -14 -14 -14 -14 -14 -14
-14 -14 -14 -14 -14 -14 -14 -14 -14 -14 -14 -14 -14 -14 -14 -14 -14 -14 -14 -14 -14 -14 -14 -14 -14 -14 -14 -14 -14 -14 -14 -14 -14 -14 -14 -14 -14 -14 -15 -15 -15 -15 -15 -15
-14 -14 -14 -14 -14 -14 -14 -14 -14 -14 -14 -14 -14 -14 -14 -14 -14 -13 -14 -14 -14 -15 -15 -15 -15 -15 -15 -15 -15 -15 -15 -15 -15 -15 -16 -16 -16 -16 -16 -16 -16 -16 -16 -16
-14 -14 -14 -14 -14 -14 -14 -14 -14 -14 -14 -14 -14 -14 -14 -14 -14 -14 -14 -15 -15 -15 -15 -15 -15 -15 -15 -15 -15 -16 -16 -16 -16 -16 -16 -16 -16 -16 -16 -16 -16 -16 -16 -16
-14 -14 -14 -14 -14 -14 -14 -14 -14 -14 -14 -14 -14 -14 -14 -13 -13 -13 -13 -13 -13 -14 -14 -15 -15 -16 -16 -16 -16 -16 -16 -16 -17 -17 -17 -17 -17 -17 -17 -17 -17 -17 -17 -17
-14 -14 -14 -14 -14 -14 -14 -14 -14 -14 -14 -13 -13 -13 -13 -14 -14 -14 -14 -14 -14 -14 -14 -14 -15 -15 -16 -16 -16 -16 -17 -17 -17 -17 -17 -17 -17 -17 -17 -17 -18 -18 -18 -18
-15 -15 -15 -14 -14 -14 -14 -14 -14 -14 -14 -14 -14 -14 -14 -14 -14 -15 -15 -15 -15 -15 -15 -15 -15 -16 -16 -17 -17 -17 -17 -17 -17 -17 -17 -17 -18 -18 -19 -20 -20 -20 -20 -20
-15 -15 -15 -15 -14 -14 -14 -14 -14 -14 -14 -14 -14 -14 -14 -14 -14 -15 -15 -15 -15 -15 -15 -16 -16 -16 -17 -17 -18 -18 -18 -18 -18 -18 -18 -19 -19 -20 -21 -22 -22 -22 -23 -23
-15 -15 -15 -15 -15 -14 -14 -14 -14 -14 -14 -14 -14 -14 -14 -14 -15 -15 -15 -16 -16 -16 -16 -17 -17 -18 -18 -19 -19 -19 -19 -19 -19 -19 -19 -20 -21 -23 -23 -23 -23 -24 -24 -23
-15 -15 -15 -15 -15 -14 -14 -14 -14 -14 -14 -14 -14 -14 -14 -15 -15 -15 -16 -16 -17 -17 -17 -18 -18 -19 -19 -19 -19 -19 -19 -19 -19 -19 -20 -21 -23 -23 -23 -23 -24 -24 -24 -24
-15 -15 -15 -15 -14 -14 -14 -14 -14 -14 -14 -14 -14 -15 -15 -15 -15 -16 -16 -16 -17 -18 -18 -19 -19 -19 -20 -20 -20 -20 -20 -19 -20 -20 -21 -22 -23 -23 -23 -23 -24 -24 -24 -24
-15 -15 -15 -15 -15 -15 -14 -14 -14 -14 -14 -14 -14 -15 -15 -15 -16 -16 -17 -17 -17 -18 -19 -20 -20 -20 -20 -20 -20 -20 -20 -20 -20 -20 -21 -23 -23 -23 -23 -23 -24 -24 -24 -24

GFSNGP_500_temp_117.txt.gz
Temp
-14 -14 -14 -14 -13 -13 -12 -12 -12 -12 -11 -12 -11 -11 -10 -10 -9 -9 -9 -8 -7 -6 -6 -7 -6 -6 -6 -6 -7 -6 -6 -6 -6 -6 -6 -6 -6 -6 -6 -6 -7 -6 -6 -6
-15 -15 -14 -14 -14 -13 -13 -13 -12 -12 -11 -12 -12 -11 -11 -10 -9 -9 -9 -9 -7 -7 -7 -6 -6 -7 -7 -7 -7 -7 -6 -6 -6 -6 -7 -7 -7 -6 -6 -6 -6 -6 -6 -6
-15 -15 -14 -14 -13 -13 -13 -13 -13 -12 -11 -12 -12 -11 -11 -11 -10 -10 -9 -9 -8 -9 -7 -7 -7 -7 -7 -7 -7 -6 -6 -7 -7 -6 -6 -6 -6 -6 -6 -6 -6 -6 -6 -6
-15 -16 -14 -14 -14 -14 -13 -13 -13 -12 -12 -11 -11 -11 -11 -11 -10 -10 -9 -8 -8 -8 -8 -7 -7 -7 -7 -6 -7 -7 -7 -6 -6 -7 -6 -6 -6 -6 -6 -6 -6 -6 -6 -6
-15 -15 -14 -13 -14 -13 -14 -14 -13 -13 -12 -11 -11 -11 -11 -11 -10 -10 -10 -9 -8 -8 -8 -9 -8 -8 -7 -7 -7 -7 -7 -7 -6 -6 -6 -7 -6 -7 -7 -6 -6 -7 -6 -6
-15 -15 -14 -13 -14 -14 -13 -13 -13 -13 -13 -13 -12 -11 -11 -11 -11 -11 -11 -10 -10 -10 -10 -9 -9 -8 -8 -8 -7 -7 -7 -7 -6 -6 -6 -7 -7 -6 -7 -7 -7 -7 -7 -7
-14 -14 -14 -15 -14 -13 -13 -13 -13 -13 -13 -13 -12 -12 -12 -11 -11 -12 -11 -10 -10 -10 -9 -9 -9 -9 -9 -8 -8 -8 -7 -7 -7 -7 -7 -7 -7 -7 -7 -7 -7 -7 -7 -8
-14 -14 -14 -14 -14 -13 -13 -13 -13 -13 -13 -12 -11 -12 -12 -12 -12 -11 -11 -11 -11 -10 -10 -9 -9 -9 -9 -8 -8 -8 -8 -7 -7 -7 -7 -7 -7 -7 -7 -7 -7 -8 -8 -9
-14 -14 -14 -13 -13 -13 -13 -13 -12 -13 -13 -12 -12 -12 -12 -12 -12 -11 -11 -12 -11 -11 -10 -10 -9 -9 -9 -9 -9 -9 -8 -9 -8 -8 -8 -8 -7 -8 -8 -8 -8 -8 -9 -9
-14 -14 -14 -14 -14 -14 -14 -14 -13 -13 -13 -13 -13 -13 -13 -12 -12 -12 -12 -11 -11 -11 -10 -10 -10 -10 -10 -10 -10 -9 -9 -9 -9 -8 -8 -8 -9 -8 -9 -9 -9 -9 -10 -11
-14 -14 -14 -14 -15 -15 -14 -14 -14 -13 -13 -13 -13 -13 -12 -12 -12 -12 -12 -11 -11 -11 -10 -10 -10 -11 -10 -10 -10 -10 -11 -10 -10 -9 -9 -9 -9 -9 -10 -10 -11 -11 -11 -11
-14 -14 -14 -14 -15 -15 -15 -15 -14 -14 -13 -13 -13 -13 -13 -13 -13 -12 -12 -11 -11 -11 -10 -10 -10 -10 -10 -10 -10 -11 -11 -11 -11 -11 -11 -10 -10 -11 -11 -11 -11 -10 -11 -11
-14 -14 -14 -15 -15 -15 -15 -15 -15 -15 -14 -14 -14 -14 -13 -13 -12 -12 -12 -12 -12 -12 -12 -11 -11 -11 -11 -11 -11 -11 -11 -12 -12 -11 -10 -10 -11 -11 -11 -11 -11 -12 -12 -12
-14 -14 -14 -14 -14 -14 -14 -14 -14 -14 -14 -14 -14 -14 -14 -14 -13 -13 -13 -13 -13 -12 -12 -12 -12 -12 -12 -12 -12 -13 -12 -12 -12 -12 -12 -12 -12 -12 -12 -12 -12 -12 -12 -12
-13 -14 -14 -14 -14 -14 -14 -14 -14 -14 -14 -14 -14 -14 -14 -13 -13 -13 -13 -13 -13 -13 -13 -13 -13 -13 -13 -12 -12 -12 -12 -12 -12 -12 -13 -13 -13 -13 -13 -13 -13 -13 -13 -13
-13 -14 -14 -14 -14 -14 -14 -14 -14 -14 -14 -14 -14 -14 -14 -14 -14 -14 -13 -13 -13 -13 -13 -13 -13 -13 -13 -13 -13 -13 -13 -13 -13 -13 -13 -13 -13 -13 -14 -14 -14 -14 -14 -14
-13 -14 -14 -14 -14 -14 -14 -14 -14 -14 -14 -14 -14 -14 -14 -14 -14 -14 -14 -14 -14 -14 -14 -14 -14 -14 -14 -14 -14 -14 -13 -13 -13 -13 -13 -14 -14 -14 -14 -14 -14 -14 -15 -15
-13 -13 -14 -14 -14 -14 -14 -14 -14 -14 -14 -14 -14 -14 -14 -14 -13 -13 -13 -13 -13 -13 -13 -13 -13 -14 -14 -14 -14 -14 -14 -14 -15 -15 -15 -15 -15 -15 -15 -15 -15 -16 -16 -16
-13 -14 -14 -14 -14 -14 -14 -14 -14 -14 -14 -14 -13 -13 -13 -13 -14 -13 -13 -13 -13 -13 -13 -13 -13 -13 -13 -13 -14 -14 -14 -15 -15 -15 -15 -16 -16 -16 -16 -16 -16 -16 -16 -16
-14 -14 -14 -14 -14 -14 -14 -14 -14 -14 -14 -14 -14 -14 -14 -14 -14 -14 -14 -14 -14 -14 -13 -13 -13 -14 -14 -14 -14 -14 -14 -14 -15 -15 -15 -16 -16 -16 -17 -17 -17 -17 -17 -17
-14 -14 -14 -14 -14 -14 -14 -14 -14 -14 -14 -14 -14 -14 -14 -14 -14 -14 -14 -14 -14 -14 -14 -14 -14 -14 -14 -14 -14 -14 -14 -15 -15 -16 -16 -17 -17 -17 -17 -17 -17 -17 -18 -18
-14 -14 -14 -14 -14 -14 -14 -14 -14 -14 -14 -14 -14 -14 -14 -14 -14 -14 -14 -14 -14 -14 -14 -14 -15 -15 -15 -14 -15 -15 -15 -15 -16 -17 -17 -18 -18 -18 -18 -18 -18 -18 -19 -19
-15 -14 -14 -14 -14 -14 -14 -14 -14 -14 -14 -14 -14 -14 -14 -14 -14 -14 -14 -14 -14 -14 -15 -15 -15 -15 -15 -15 -15 -15 -15 -17 -17 -18 -18 -18 -18 -18 -18 -18 -19 -20 -22 -22
-15 -15 -14 -15 -15 -15 -14 -14 -14 -14 -14 -14 -14 -14 -14 -14 -14 -14 -14 -14 -14 -14 -15 -15 -15 -15 -15 -15 -15 -16 -17 -18 -18 -19 -19 -19 -19 -19 -19 -19 -21 -22 -22 -22
-15 -15 -15 -15 -16 -15 -15 -14 -14 -14 -14 -14 -14 -14 -14 -14 -14 -14 -14 -14 -15 -15 -15 -16 -16 -16 -16 -16 -17 -17 -18 -19 -19 -19 -19 -19 -19 -19 -19 -20 -22 -23 -22 -23
-15 -15 -15 -15 -16 -15 -15 -15 -15 -14 -14 -14 -14 -14 -14 -14 -14 -14 -14 -15 -15 -15 -15 -16 -17 -17 -17 -17 -18 -19 -20 -20 -20 -20 -20 -20 -20 -20 -20 -21 -23 -23 -23 -23
-15 -15 -15 -15 -15 -15 -15 -15 -15 -15 -14 -14 -14 -14 -14 -14 -14 -15 -15 -15 -15 -15 -15 -16 -17 -17 -18 -18 -19 -20 -20 -21 -21 -20 -20 -20 -20 -21 -21 -22 -23 -23 -23 -23

GFSNGP_500_temp_123.txt.gz
Temp
-12 -11 -13 -13 -11 -12 -12 -12 -11 -11 -10 -10 -9 -10 -11 -11 -9 -8 -7 -7 -6 -6 -6 -6 -6 -6 -6 -5 -5 -5 -5 -5 -6 -5 -6 -6 -6 -6 -6 -6 -6 -6 -6 -6
-13 -13 -13 -14 -13 -11 -11 -11 -12 -11 -11 -10 -11 -12 -10 -10 -9 -8 -9 -9 -6 -8 -7 -7 -6 -6 -6 -6 -6 -6 -6 -5 -5 -6 -6 -6 -6 -6 -6 -6 -6 -6 -6 -6
-14 -14 -14 -14 -14 -14 -14 -13 -12 -11 -11 -10 -11 -12 -10 -10 -9 -8 -8 -9 -8 -7 -7 -6 -6 -6 -6 -6 -6 -6 -6 -6 -6 -6 -6 -6 -6 -6 -6 -6 -6 -6 -7 -7
-13 -14 -14 -14 -13 -14 -13 -13 -11 -11 -12 -12 -12 -12 -11 -10 -10 -8 -7 -9 -8 -7 -7 -7 -6 -6 -6 -6 -6 -6 -6 -6 -6 -6 -6 -6 -6 -6 -6 -6 -6 -6 -6 -6
-15 -14 -14 -15 -14 -14 -15 -13 -13 -13 -11 -11 -12 -12 -11 -10 -10 -9 -9 -8 -8 -8 -8 -7 -6 -6 -6 -6 -6 -6 -6 -6 -6 -6 -7 -7 -7 -6 -6 -6 -6 -6 -6 -5
-14 -14 -13 -13 -14 -14 -13 -15 -13 -13 -12 -12 -12 -12 -11 -10 -11 -11 -10 -9 -8 -8 -8 -8 -7 -7 -6 -6 -6 -6 -6 -6 -6 -6 -7 -7 -6 -7 -7 -7 -6 -6 -6 -6
-15 -15 -13 -14 -14 -14 -14 -14 -12 -12 -12 -11 -12 -12 -11 -11 -11 -11 -11 -9 -9 -9 -9 -8 -8 -7 -7 -7 -7 -6 -6 -6 -6 -6 -7 -7 -6 -7 -6 -6 -6 -6 -6 -6
-14 -14 -14 -14 -13 -13 -13 -13 -10 -12 -11 -12 -13 -12 -12 -12 -12 -11 -11 -10 -11 -11 -10 -9 -9 -8 -8 -7 -7 -8 -7 -7 -7 -7 -7 -7 -7 -7 -6 -6 -6 -6 -6 -6
-14 -14 -13 -13 -13 -13 -13 -13 -13 -13 -13 -12 -13 -12 -12 -12 -12 -12 -11 -11 -11 -11 -11 -11 -10 -10 -9 -10 -9 -9 -8 -8 -8 -8 -8 -8 -8 -8 -7 -7 -7 -7 -7 -7
-13 -13 -13 -13 -13 -13 -14 -14 -13 -13 -13 -13 -13 -12 -12 -12 -12 -12 -11 -12 -12 -11 -11 -11 -11 -11 -10 -11 -10 -10 -10 -9 -9 -9 -9 -9 -9 -9 -9 -9 -9 -8 -8 -8
-13 -13 -13 -14 -13 -13 -13 -13 -13 -14 -14 -14 -13 -13 -12 -12 -11 -12 -12 -12 -12 -12 -11 -11 -11 -11 -10 -10 -10 -11 -11 -11 -9 -9 -9 -9 -9 -9 -9 -9 -9 -9 -8 -8
-13 -13 -14 -14 -13 -13 -14 -14 -14 -14 -14 -14 -14 -13 -12 -12 -12 -12 -12 -11 -11 -11 -11 -11 -10 -10 -10 -10 -10 -10 -10 -10 -10 -10 -10 -10 -10 -10 -10 -9 -9 -9 -9 -9
-13 -14 -13 -13 -13 -14 -14 -14 -14 -14 -14 -14 -14 -13 -12 -12 -13 -13 -12 -11 -11 -11 -11 -11 -10 -10 -10 -10 -9 -10 -10 -10 -10 -10 -11 -11 -10 -10 -10 -10 -11 -10 -10 -10
-13 -13 -13 -14 -14 -14 -14 -14 -14 -14 -14 -14 -14 -13 -13 -13 -13 -12 -12 -12 -11 -10 -11 -11 -10 -10 -10 -10 -10 -10 -10 -11 -11 -10 -11 -11 -11 -11 -11 -11 -11 -11 -11 -11
-13 -13 -13 -13 -14 -14 -14 -14 -14 -14 -14 -14 -14 -14 -14 -14 -14 -13 -13 -13 -13 -12 -12 -12 -11 -11 -11 -12 -11 -11 -11 -12 -12 -12 -12 -12 -11 -12 -12 -12 -12 -12 -13 -12
-13 -13 -13 -13 -13 -13 -13 -14 -14 -14 -14 -14 -14 -14 -14 -14 -14 -14 -14 -13 -13 -13 -13 -12 -12 -12 -12 -12 -12 -12 -12 -12 -12 -12 -12 -12 -12 -12 -12 -12 -12 -12 -12 -12
-13 -13 -13 -13 -13 -13 -14 -14 -14 -14 -14 -14 -14 -14 -14 -14 -14 -14 -14 -14 -14 -13 -13 -13 -13 -13 -13 -13 -13 -12 -12 -12 -12 -12 -12 -12 -12 -12 -12 -12 -12 -12 -13 -12
-13 -13 -13 -13 -13 -13 -14 -14 -14 -14 -14 -14 -14 -14 -14 -14 -14 -14 -14 -13 -13 -13 -13 -13 -13 -12 -12 -12 -12 -12 -12 -12 -12 -12 -12 -12 -13 -13 -13 -13 -13 -13 -13 -13
-13 -13 -13 -13 -13 -13 -13 -14 -14 -14 -14 -14 -14 -14 -14 -14 -14 -14 -14 -13 -13 -13 -13 -13 -13 -12 -12 -12 -12 -13 -13 -13 -12 -12 -13 -13 -13 -13 -13 -13 -13 -13 -14 -14
-13 -14 -13 -13 -13 -13 -13 -13 -14 -14 -14 -14 -14 -14 -14 -14 -14 -14 -13 -13 -13 -13 -13 -13 -13 -13 -13 -13 -13 -13 -13 -13 -13 -13 -13 -13 -13 -13 -14 -14 -14 -14 -14 -15
-14 -14 -14 -13 -13 -13 -13 -13 -13 -14 -14 -14 -14 -14 -14 -14 -14 -14 -14 -14 -14 -13 -13 -13 -13 -13 -13 -13 -13 -13 -13 -13 -13 -13 -13 -13 -13 -13 -14 -14 -14 -14 -15 -16
-14 -14 -14 -14 -14 -13 -13 -13 -13 -14 -14 -14 -14 -14 -14 -14 -14 -14 -14 -14 -13 -13 -13 -13 -13 -13 -13 -13 -13 -13 -13 -13 -13 -13 -13 -13 -13 -14 -14 -14 -14 -15 -16 -17
-14 -14 -14 -14 -14 -14 -14 -14 -14 -14 -14 -14 -14 -14 -14 -14 -14 -14 -14 -13 -14 -14 -14 -14 -13 -13 -13 -13 -13 -13 -13 -13 -14 -14 -14 -14 -14 -14 -14 -15 -15 -16 -17 -18
-15 -14 -14 -14 -14 -14 -14 -14 -14 -14 -14 -14 -14 -14 -14 -14 -14 -14 -14 -14 -14 -14 -14 -14 -14 -13 -13 -13 -13 -13 -14 -14 -14 -14 -14 -14 -14 -14 -15 -15 -17 -17 -18 -19
-17 -16 -15 -15 -14 -14 -14 -14 -14 -14 -14 -14 -14 -14 -14 -14 -14 -14 -14 -14 -14 -14 -14 -14 -14 -14 -14 -14 -14 -14 -14 -14 -14 -15 -15 -15 -15 -15 -16 -17 -17 -18 -19 -19
-16 -16 -16 -15 -15 -14 -14 -14 -14 -15 -15 -15 -15 -15 -15 -15 -14 -14 -14 -14 -14 -14 -14 -14 -14 -14 -14 -14 -14 -14 -15 -15 -15 -15 -15 -15 -16 -16 -17 -18 -18 -19 -19 -20
-16 -16 -16 -16 -15 -15 -14 -15 -15 -15 -15 -15 -15 -15 -15 -15 -15 -14 -14 -14 -14 -14 -14 -14 -14 -14 -14 -15 -15 -15 -15 -15 -16 -15 -16 -16 -16 -17 -18 -19 -19 -19 -20 -20